01:05
Airports
History
Links
Donate
Help keep this website running!
PayPal
Bitcoin
This page is community maintained. The information is intended for PC simulator navigation or reference.
Always use approved charts for navigation.
CYXN
Whale Cove
Whale Cove (CYXN)
Whale Cove, Nunavut, Canada
4
Lat/Lng:62° 14' 24.42" N / 92° 35' 51.59" W
62.240117 / -92.597663
Elevation:26'ft / 8mMSL
ID / ICAO:CYXN
Runways:1
Longest:15-33
Dirt 1,320m / 4,330ft
Beacon:White-Green
Nearby Weather00:00 GMT 2017-11-18
Nearby weather at CYRT, RANKIN INLET located 42.4 nautical miles from CYXN
Altimeter: 29.53
Visibility: 0.8 statute miles
Wind: 28 knots (from 130°)
Temp: -4°c / 25°f
Humidity: 92.7%

METAR: CYRT 180000Z 13028G33KT 3/4SM -SN BLSN OVC016 M04/M05 A2953 RMK BLSN3SC5 /S05/ SLP004

(Powered by phpweather)
Nearby VORs <50NM
Nearby NDBs
Runway 15 / 33
Dimensions:1319.7 x 50m 4330' x 164'ft
Surface:Dirt
Edge Lights:Medium intensity
Runway 15 [A]Runway 33 [B]
Heading:149°TH 329°TH
Lat:
Lng:
62° 14' 42.9"N
92° 36' 14.84"W
62° 14' 5.94"N
92° 35' 28.33"W
User Notes and Comments
62° 14' 24.42" N / 92° 35' 51.59" W
Distance To
Airport ID:
Nearby Airports
(U) RANKIN INLET 42.4 NM
CYRT ( WX ) NNE 21°
4 ARVIAT 92.7 NM
CYEK SSW 211°
4 Chesterfield Inlet 96.6 NM
CYCS NE 37°
4 BAKER LAKE 178.6 NM
CYBK ( WX ) NW 322°
(U) CHURCHILL 247.0 NM
CYYQ ( WX ) S 191°
4 Nejalini Lake 258.0 NM
CKW9 SW 222°
4 Tadoule Lake 316.3 NM
CYBQ SW 219°
VFR Chart
Flight Planning at SkyVector.com